Location: Bas Lanzent
(48.1360°N, 3.5871°W)
Time: 20:26:03
(UTC+00:00)

PSLV R/B - Pass Details

Date: 18 February 2020
Orbit: 505 x 579 km, 97.8° (Epoch: 29 March)

Event Time Altitude Azimuth Distance (km) Brightness Sun altitude
Rises 05:15:47 0° 17° (NNE) 2,625 7.6 -20.8°
Reaches altitude 10° 05:17:54 10° 22° (NNE) 1,739 6.7 -20.5°
Maximum altitude 05:21:34 53° 100° (E) 636 4.4 -19.9°
Drops below altitude 10° 05:25:16 10° 179° (S) 1,752 6.3 -19.3°
Sets 05:27:25 0° 184° (S) 2,647 7.2 -18.9°
